TimeMDT,TemperatureF,Dew PointF,Humidity,Sea Level PressureIn,VisibilityMPH,Wind Direction,Wind SpeedMPH,Gust SpeedMPH,PrecipitationIn,Events,Conditions,WindDirDegrees,DateUTC
12:53 AM,55.0,36.0,49,30.00,10.0,Calm,Calm,-,N/A,,Clear,0,2013-08-15 06:53:00
1:53 AM,52.0,37.9,59,30.00,10.0,ESE,6.9,-,N/A,,Clear,120,2013-08-15 07:53:00
2:53 AM,50.0,37.0,61,30.00,10.0,Calm,Calm,-,N/A,,Clear,0,2013-08-15 08:53:00
3:53 AM,48.9,36.0,61,30.02,10.0,Calm,Calm,-,N/A,,Clear,0,2013-08-15 09:53:00
4:53 AM,48.9,35.1,59,30.02,10.0,East,4.6,-,N/A,,Clear,80,2013-08-15 10:53:00
5:53 AM,46.9,36.0,66,30.03,10.0,Calm,Calm,-,N/A,,Clear,0,2013-08-15 11:53:00
6:53 AM,46.9,35.1,63,30.06,10.0,Calm,Calm,-,N/A,,Clear,0,2013-08-15 12:53:00
7:53 AM,55.9,37.9,51,30.06,10.0,ENE,3.5,-,N/A,,Clear,60,2013-08-15 13:53:00
8:53 AM,63.0,39.0,41,30.08,10.0,Calm,Calm,-,N/A,,Clear,0,2013-08-15 14:53:00
9:53 AM,73.0,39.0,29,30.05,10.0,Calm,Calm,-,N/A,,Clear,0,2013-08-15 15:53:00
10:53 AM,81.0,35.1,19,30.04,10.0,Variable,3.5,-,N/A,,Clear,0,2013-08-15 16:53:00
11:53 AM,84.0,37.9,19,30.03,10.0,South,6.9,-,N/A,,Clear,190,2013-08-15 17:53:00
12:53 PM,87.1,37.9,18,30.03,10.0,SW,9.2,-,N/A,,Clear,220,2013-08-15 18:53:00
1:53 PM,90.0,26.1,10,30.00,10.0,West,10.4,17.3,N/A,,Clear,280,2013-08-15 19:53:00
2:53 PM,91.0,16.0,6,29.98,10.0,Variable,5.8,-,N/A,,Clear,0,2013-08-15 20:53:00
3:53 PM,90.0,24.1,9,29.97,10.0,Variable,4.6,-,N/A,,Clear,0,2013-08-15 21:53:00
4:53 PM,91.0,25.0,9,29.96,10.0,WNW,11.5,-,N/A,,Clear,300,2013-08-15 22:53:00
5:53 PM,90.0,23.0,9,29.96,10.0,WSW,4.6,-,N/A,,Clear,250,2013-08-15 23:53:00
6:53 PM,87.1,26.1,11,29.96,10.0,Variable,6.9,-,N/A,,Clear,0,2013-08-16 00:53:00
7:53 PM,78.1,37.0,23,29.97,10.0,South,4.6,-,N/A,,Clear,180,2013-08-16 01:53:00
8:53 PM,71.1,36.0,28,29.99,10.0,SSW,3.5,-,N/A,,Clear,200,2013-08-16 02:53:00
9:53 PM,70.0,37.9,31,29.98,10.0,ENE,8.1,-,N/A,,Clear,70,2013-08-16 03:53:00
11:53 PM,63.0,37.0,38,29.99,10.0,ENE,5.8,-,N/A,,Clear,60,2013-08-16 05:53:00